Location: La Brionne
(46.1728°N, 1.7849°E)
Time: 07:42:26
(UTC+00:00)

Cosmos 2285 Rocket - Pass Details

Date: 16 June 2021
Orbit: 971 x 998 km, 74.0° (Epoch: 02 August)

Event Time Altitude Azimuth Distance (km) Brightness Sun altitude
Rises 20:35:08 0° 197° (SSW) 3,704 6.8 -7.2°
Reaches altitude 10° 20:37:40 10° 197° (SSW) 2,759 6.1 -7.5°
Maximum altitude 20:44:06 85° 110° (ESE) 1,008 4.1 -8.3°
Drops below altitude 10° 20:50:33 10° 23° (NNE) 2,771 6.7 -9.0°
Sets 20:53:06 0° 23° (NNE) 3,721 7.4 -9.3°
